SKW5237 KLAS-KLAX

Flight info

Callsign SKW5237
Flight time 0h 44m
Altitude 26000
Route RADYR2 BLAQQ SHTNR ANJLL4
Aircraft E75L/M-SDE3GILORVW/S

Departure

Time 2026-05-04 03:20
Airport Harry Reid International Airport (KLAS)

Arrival

Time 2026-05-04 04:04
Airport Los Angeles International Airport (KLAX)
Time Latitude Longitude Altitude Speed Heading
2026-05-04 02:56 36.08261 -115.13842 2079 ft 0 kts 224°
2026-05-04 03:09 36.08262 -115.13842 2079 ft 0 kts 224°
2026-05-04 03:09 36.08272 -115.13830 2078 ft 2 kts 224°
2026-05-04 03:09 36.08283 -115.13817 2078 ft 1 kts 224°
2026-05-04 03:09 36.08288 -115.13808 2078 ft 1 kts 271°
2026-05-04 03:10 36.08284 -115.13797 2078 ft 1 kts 329°
2026-05-04 03:10 36.08273 -115.13796 2078 ft 2 kts
2026-05-04 03:10 36.08263 -115.13796 2078 ft 0 kts 355°
2026-05-04 03:12 36.08269 -115.13797 2078 ft 2 kts 354°
2026-05-04 03:12 36.08301 -115.13800 2077 ft 6 kts 354°
2026-05-04 03:13 36.08360 -115.13793 2076 ft 10 kts 21°
2026-05-04 03:13 36.08415 -115.13708 2073 ft 15 kts 88°
2026-05-04 03:13 36.08415 -115.13562 2069 ft 19 kts 89°
2026-05-04 03:13 36.08354 -115.13413 2066 ft 19 kts 138°
2026-05-04 03:14 36.08253 -115.13376 2067 ft 14 kts 180°
2026-05-04 03:14 36.08154 -115.13375 2070 ft 13 kts 178°
2026-05-04 03:14 36.08067 -115.13377 2071 ft 11 kts 180°
2026-05-04 03:14 36.07988 -115.13377 2073 ft 10 kts 180°
2026-05-04 03:15 36.07916 -115.13376 2074 ft 9 kts 180°
2026-05-04 03:15 36.07904 -115.13376 2075 ft 0 kts 180°
2026-05-04 03:15 36.07901 -115.13376 2075 ft 1 kts 180°
2026-05-04 03:15 36.07883 -115.13376 2075 ft 4 kts 180°
2026-05-04 03:16 36.07834 -115.13359 2075 ft 10 kts 129°
2026-05-04 03:16 36.07827 -115.13247 2073 ft 15 kts 89°
2026-05-04 03:16 36.07828 -115.13087 2068 ft 21 kts 90°
2026-05-04 03:16 36.07828 -115.12868 2063 ft 27 kts 90°
2026-05-04 03:17 36.07827 -115.12631 2058 ft 26 kts 91°
2026-05-04 03:17 36.07827 -115.12412 2054 ft 26 kts 90°
2026-05-04 03:17 36.07826 -115.12262 2051 ft 12 kts 109°
2026-05-04 03:17 36.07766 -115.12176 2051 ft 13 kts 132°
2026-05-04 03:18 36.07741 -115.12141 2051 ft 0 kts 139°
2026-05-04 03:18 36.07739 -115.12138 2051 ft 1 kts 143°
2026-05-04 03:18 36.07718 -115.12125 2051 ft 5 kts 160°
2026-05-04 03:18 36.07660 -115.12129 2052 ft 11 kts 210°
2026-05-04 03:19 36.07642 -115.12280 2055 ft 40 kts 270°
2026-05-04 03:19 36.07643 -115.12931 2067 ft 106 kts 269°
2026-05-04 03:19 36.07643 -115.14014 2104 ft 153 kts 268°
2026-05-04 03:19 36.07703 -115.15395 2566 ft 163 kts 270°
2026-05-04 03:20 36.07735 -115.16821 3147 ft 170 kts 266°
2026-05-04 03:20 36.07764 -115.18325 3802 ft 172 kts 265°
2026-05-04 03:20 36.07606 -115.19828 4099 ft 192 kts 257°
2026-05-04 03:20 36.07379 -115.21615 4364 ft 218 kts 258°
2026-05-04 03:21 36.07153 -115.23529 4926 ft 229 kts 259°
2026-05-04 03:21 36.06686 -115.25410 5483 ft 234 kts 231°
2026-05-04 03:21 36.05338 -115.26633 5935 ft 249 kts 202°
2026-05-04 03:21 36.03636 -115.27398 6444 ft 263 kts 201°
2026-05-04 03:22 36.01871 -115.28195 7086 ft 269 kts 200°
2026-05-04 03:22 36.00098 -115.29001 7836 ft 266 kts 200°
2026-05-04 03:22 35.98303 -115.29623 8143 ft 276 kts 191°
2026-05-04 03:22 35.96394 -115.30091 8858 ft 277 kts 191°
2026-05-04 03:23 35.94508 -115.30555 9690 ft 274 kts 191°
2026-05-04 03:23 35.92635 -115.31016 10458 ft 272 kts 190°
2026-05-04 03:23 35.90747 -115.31479 11126 ft 275 kts 189°
2026-05-04 03:23 35.88854 -115.31943 11655 ft 282 kts 190°
2026-05-04 03:24 35.86852 -115.32435 12082 ft 294 kts 189°
2026-05-04 03:24 35.84787 -115.32941 12604 ft 302 kts 189°
2026-05-04 03:24 35.82679 -115.33460 13306 ft 304 kts 189°
2026-05-04 03:24 35.80575 -115.33974 13953 ft 306 kts 190°
2026-05-04 03:25 35.78452 -115.34495 14521 ft 310 kts 190°
2026-05-04 03:25 35.76335 -115.35013 15137 ft 312 kts 192°
2026-05-04 03:25 35.74153 -115.35547 15826 ft 313 kts 192°
2026-05-04 03:25 35.71987 -115.36077 16405 ft 315 kts 193°
2026-05-04 03:26 35.69779 -115.36618 16898 ft 321 kts 193°
2026-05-04 03:26 35.67564 -115.37160 17442 ft 323 kts 193°
2026-05-04 03:26 35.65306 -115.37711 17918 ft 328 kts 194°
2026-05-04 03:26 35.63043 -115.38262 18459 ft 329 kts 195°
2026-05-04 03:27 35.60739 -115.38719 19050 ft 334 kts 186°
2026-05-04 03:27 35.58403 -115.38606 19535 ft 339 kts 183°
2026-05-04 03:27 35.55967 -115.38432 20057 ft 341 kts 183°
2026-05-04 03:27 35.53572 -115.38259 20448 ft 346 kts 184°
2026-05-04 03:28 35.51140 -115.38083 20974 ft 346 kts 184°
2026-05-04 03:28 35.48780 -115.37913 21413 ft 348 kts 185°
2026-05-04 03:28 35.46347 -115.37736 21917 ft 348 kts 185°
2026-05-04 03:28 35.44029 -115.37907 22299 ft 335 kts 204°
2026-05-04 03:29 35.41903 -115.39051 22674 ft 331 kts 213°
2026-05-04 03:29 35.39827 -115.40354 23138 ft 332 kts 214°
2026-05-04 03:29 35.37732 -115.41685 23617 ft 332 kts 214°
2026-05-04 03:29 35.35623 -115.43030 24008 ft 335 kts 214°
2026-05-04 03:30 35.33528 -115.44366 24465 ft 336 kts 214°
2026-05-04 03:30 35.31440 -115.45701 24845 ft 338 kts 214°
2026-05-04 03:30 35.29333 -115.47044 25206 ft 341 kts 215°
2026-05-04 03:30 35.27206 -115.48402 25501 ft 345 kts 215°
2026-05-04 03:31 35.25035 -115.49785 25852 ft 343 kts 214°
2026-05-04 03:31 35.22870 -115.51166 25888 ft 351 kts 214°
2026-05-04 03:31 35.20699 -115.52549 25899 ft 362 kts 214°
2026-05-04 03:31 35.18436 -115.53989 25906 ft 372 kts 214°
2026-05-04 03:32 35.16085 -115.55483 25898 ft 382 kts 214°
2026-05-04 03:32 35.14495 -115.56494 25894 ft 388 kts 214°
2026-05-04 03:32 35.11521 -115.59038 25908 ft 387 kts 229°
2026-05-04 03:32 35.09611 -115.61449 25884 ft 395 kts 230°
2026-05-04 03:33 35.07680 -115.63912 25880 ft 399 kts 230°
2026-05-04 03:33 35.05810 -115.66299 25883 ft 406 kts 229°
2026-05-04 03:33 35.03875 -115.68770 25876 ft 404 kts 230°
2026-05-04 03:33 35.01920 -115.71265 25862 ft 397 kts 229°
2026-05-04 03:34 35.00639 -115.72899 25853 ft 393 kts 230°
2026-05-04 03:34 34.98131 -115.76099 25845 ft 390 kts 229°
2026-05-04 03:34 34.96220 -115.78534 25847 ft 388 kts 229°
2026-05-04 03:34 34.94354 -115.80909 25849 ft 390 kts 230°
2026-05-04 03:35 34.92460 -115.83320 25849 ft 390 kts 230°
2026-05-04 03:35 34.90538 -115.85764 25848 ft 392 kts 229°
2026-05-04 03:35 34.88651 -115.88159 25854 ft 391 kts 230°
2026-05-04 03:35 34.86744 -115.90582 25861 ft 393 kts 229°
2026-05-04 03:36 34.84859 -115.92974 25856 ft 394 kts 229°
2026-05-04 03:36 34.82936 -115.95411 25849 ft 397 kts 229°
2026-05-04 03:36 34.81025 -115.97831 25856 ft 395 kts 229°
2026-05-04 03:36 34.79110 -116.00256 25853 ft 397 kts 230°
2026-05-04 03:37 34.77166 -116.02718 25847 ft 398 kts 229°
2026-05-04 03:37 34.75248 -116.05165 25847 ft 394 kts 230°
2026-05-04 03:37 34.73347 -116.07588 25849 ft 393 kts 229°
2026-05-04 03:37 34.71447 -116.10007 25850 ft 395 kts 230°
2026-05-04 03:38 34.69552 -116.12420 25848 ft 393 kts 230°
2026-05-04 03:38 34.67661 -116.14825 25856 ft 396 kts 230°
2026-05-04 03:38 34.65736 -116.17273 25865 ft 396 kts 230°
2026-05-04 03:38 34.63872 -116.19640 25869 ft 395 kts 230°
2026-05-04 03:39 34.61982 -116.22039 25875 ft 393 kts 230°
2026-05-04 03:39 34.60093 -116.24435 25882 ft 394 kts 230°
2026-05-04 03:39 34.58168 -116.26874 25882 ft 397 kts 230°
2026-05-04 03:39 34.56240 -116.29318 25884 ft 393 kts 230°
2026-05-04 03:40 34.54353 -116.31705 25895 ft 393 kts 230°
2026-05-04 03:40 34.52430 -116.34139 25891 ft 395 kts 230°
2026-05-04 03:40 34.50506 -116.36569 25879 ft 395 kts 230°
2026-05-04 03:40 34.48605 -116.38972 25884 ft 395 kts 231°
2026-05-04 03:41 34.46689 -116.41388 25885 ft 393 kts 230°
2026-05-04 03:41 34.44776 -116.43801 25877 ft 391 kts 230°
2026-05-04 03:41 34.42889 -116.46179 25897 ft 395 kts 231°
2026-05-04 03:41 34.41233 -116.48850 25912 ft 387 kts 244°
2026-05-04 03:42 34.40013 -116.51772 25911 ft 390 kts 245°
2026-05-04 03:42 34.38811 -116.54688 25897 ft 387 kts 245°
2026-05-04 03:42 34.37615 -116.57591 25906 ft 386 kts 244°
2026-05-04 03:42 34.36406 -116.60523 25920 ft 390 kts 245°
2026-05-04 03:43 34.35209 -116.63425 25937 ft 385 kts 245°
2026-05-04 03:43 34.34010 -116.66331 25953 ft 389 kts 244°
2026-05-04 03:43 34.32834 -116.69224 25961 ft 385 kts 245°
2026-05-04 03:43 34.31670 -116.72120 25892 ft 371 kts 244°
2026-05-04 03:44 34.30582 -116.74826 25871 ft 343 kts 245°
2026-05-04 03:44 34.29557 -116.77368 25809 ft 318 kts 245°
2026-05-04 03:44 34.28632 -116.79663 25618 ft 284 kts 246°
2026-05-04 03:44 34.27798 -116.81735 25640 ft 264 kts 246°
2026-05-04 03:45 34.26972 -116.83790 25145 ft 291 kts 245°
2026-05-04 03:45 34.26021 -116.86152 24435 ft 323 kts 244°
2026-05-04 03:45 34.25004 -116.88667 23738 ft 337 kts 245°
2026-05-04 03:45 34.23984 -116.91193 23052 ft 334 kts 244°
2026-05-04 03:46 34.22960 -116.93720 23093 ft 327 kts 245°
2026-05-04 03:46 34.22002 -116.96092 22898 ft 302 kts 244°
2026-05-04 03:46 34.21077 -116.98483 22186 ft 321 kts 250°
2026-05-04 03:46 34.20379 -117.01057 21711 ft 328 kts 255°
2026-05-04 03:47 34.20111 -117.03805 21916 ft 334 kts 258°
2026-05-04 03:47 34.19438 -117.06562 22061 ft 341 kts 250°
2026-05-04 03:47 34.18614 -117.09173 22257 ft 309 kts 248°
2026-05-04 03:47 34.17849 -117.11422 22153 ft 272 kts 247°
2026-05-04 03:48 34.17143 -117.13435 21842 ft 255 kts 247°
2026-05-04 03:48 34.16439 -117.15514 21333 ft 290 kts 251°
2026-05-04 03:48 34.15765 -117.17986 20546 ft 323 kts 251°
2026-05-04 03:48 34.15062 -117.20567 19727 ft 326 kts 251°
2026-05-04 03:49 34.14351 -117.23158 18882 ft 324 kts 251°
2026-05-04 03:49 34.13654 -117.25695 18126 ft 318 kts 251°
2026-05-04 03:49 34.12963 -117.28204 17505 ft 312 kts 251°
2026-05-04 03:49 34.12277 -117.30692 16891 ft 308 kts 251°
2026-05-04 03:50 34.11583 -117.33204 16267 ft 312 kts 251°
2026-05-04 03:50 34.10918 -117.35614 16175 ft 304 kts 250°
2026-05-04 03:50 34.10255 -117.38101 15958 ft 311 kts 253°
2026-05-04 03:50 34.09638 -117.40583 15402 ft 305 kts 252°
2026-05-04 03:51 34.09029 -117.43020 14859 ft 301 kts 252°
2026-05-04 03:51 34.08421 -117.45445 14265 ft 303 kts 251°
2026-05-04 03:51 34.07807 -117.47897 13648 ft 304 kts 251°
2026-05-04 03:51 34.07192 -117.50337 13050 ft 307 kts 252°
2026-05-04 03:52 34.06553 -117.52842 12462 ft 313 kts 252°
2026-05-04 03:52 34.05931 -117.55280 12059 ft 309 kts 251°
2026-05-04 03:52 34.05297 -117.57764 11620 ft 298 kts 252°
2026-05-04 03:52 34.04693 -117.60125 11233 ft 287 kts 252°
2026-05-04 03:53 34.04115 -117.62386 10944 ft 274 kts 252°
2026-05-04 03:53 34.03577 -117.64487 10656 ft 266 kts 252°
2026-05-04 03:53 34.03054 -117.66524 10391 ft 265 kts 251°
2026-05-04 03:53 34.02511 -117.68641 10132 ft 268 kts 251°
2026-05-04 03:54 34.02102 -117.70847 9870 ft 271 kts 261°
2026-05-04 03:54 34.01907 -117.72877 9626 ft 269 kts 261°
2026-05-04 03:54 34.01688 -117.75150 9339 ft 269 kts 261°
2026-05-04 03:54 34.01477 -117.77338 9264 ft 256 kts 261°
2026-05-04 03:55 34.01261 -117.79541 9335 ft 271 kts 261°
2026-05-04 03:55 34.01056 -117.81655 8945 ft 269 kts 262°
2026-05-04 03:55 34.00841 -117.83868 8562 ft 263 kts 261°
2026-05-04 03:55 34.00628 -117.86055 8183 ft 259 kts 262°
2026-05-04 03:56 34.00417 -117.88205 7802 ft 259 kts 262°
2026-05-04 03:56 34.00237 -117.90055 7487 ft 260 kts 262°
2026-05-04 03:56 34.00029 -117.92276 7105 ft 256 kts 262°
2026-05-04 03:56 33.99825 -117.94401 6720 ft 252 kts 262°
2026-05-04 03:57 33.99625 -117.96469 6341 ft 249 kts 262°
2026-05-04 03:57 33.99441 -117.98350 6053 ft 244 kts 262°
2026-05-04 03:57 33.99244 -118.00346 5914 ft 243 kts 262°
2026-05-04 03:57 33.99042 -118.02375 5769 ft 244 kts 263°
2026-05-04 03:58 33.98653 -118.06300 5471 ft 244 kts 262°
2026-05-04 03:58 33.98460 -118.08231 5253 ft 235 kts 262°
2026-05-04 03:58 33.98268 -118.10154 5002 ft 228 kts 262°
2026-05-04 03:59 33.98085 -118.11984 4787 ft 219 kts 262°
2026-05-04 03:59 33.97912 -118.13706 4504 ft 214 kts 262°
2026-05-04 03:59 33.97750 -118.15314 4241 ft 210 kts 262°
2026-05-04 03:59 33.97569 -118.17107 3937 ft 206 kts 262°
2026-05-04 04:00 33.97398 -118.18807 3658 ft 204 kts 262°
2026-05-04 04:00 33.97237 -118.20394 3396 ft 203 kts 262°
2026-05-04 04:00 33.97073 -118.22010 3130 ft 203 kts 262°
2026-05-04 04:00 33.96899 -118.23724 2844 ft 201 kts 262°
2026-05-04 04:01 33.96735 -118.25343 2573 ft 199 kts 262°
2026-05-04 04:01 33.96574 -118.26926 2318 ft 194 kts 261°
2026-05-04 04:01 33.96415 -118.28482 2079 ft 185 kts 261°
2026-05-04 04:01 33.96265 -118.29952 1816 ft 167 kts 262°
2026-05-04 04:02 33.96130 -118.31273 1628 ft 151 kts 262°
2026-05-04 04:02 33.96007 -118.32468 1396 ft 140 kts 262°
2026-05-04 04:02 33.95896 -118.33549 1213 ft 133 kts 262°
2026-05-04 04:02 33.95782 -118.34656 1038 ft 129 kts 262°
2026-05-04 04:03 33.95673 -118.35719 869 ft 126 kts 262°
2026-05-04 04:03 33.95564 -118.36768 712 ft 129 kts 262°
2026-05-04 04:03 33.95455 -118.37813 528 ft 127 kts 262°
2026-05-04 04:03 33.95349 -118.38879 405 ft 127 kts 262°
2026-05-04 04:04 33.95237 -118.39938 197 ft 125 kts 263°
2026-05-04 04:04 33.95134 -118.40938 122 ft 108 kts 264°
2026-05-04 04:04 33.95068 -118.41605 121 ft 55 kts 263°
2026-05-04 04:04 33.95027 -118.41979 119 ft 39 kts 257°
2026-05-04 04:05 33.94935 -118.42204 118 ft 16 kts 230°
2026-05-04 04:05 33.94847 -118.42291 116 ft 15 kts 184°
2026-05-04 04:05 33.94735 -118.42277 115 ft 17 kts 176°
2026-05-04 04:05 33.94685 -118.42207 115 ft 12 kts 77°
2026-05-04 04:06 33.94697 -118.42107 117 ft 11 kts 84°
2026-05-04 04:06 33.94707 -118.42004 118 ft 13 kts 83°
2026-05-04 04:06 33.94713 -118.41948 118 ft 16 kts 83°
2026-05-04 04:06 33.94723 -118.41846 118 ft 19 kts 84°
2026-05-04 04:07 33.94742 -118.41662 118 ft 24 kts 83°
2026-05-04 04:07 33.94766 -118.41451 120 ft 25 kts 79°
2026-05-04 04:07 33.94800 -118.41243 121 ft 25 kts 82°
2026-05-04 04:07 33.94833 -118.41032 121 ft 26 kts 70°
2026-05-04 04:08 33.94849 -118.40821 121 ft 25 kts 91°
2026-05-04 04:08 33.94867 -118.40600 118 ft 27 kts 83°
2026-05-04 04:08 33.94890 -118.40372 116 ft 21 kts 81°
2026-05-04 04:08 33.94855 -118.40295 115 ft 8 kts 163°
2026-05-04 04:09 33.94794 -118.40274 115 ft 9 kts 168°
2026-05-04 04:09 33.94761 -118.40286 115 ft 4 kts 237°
2026-05-04 04:09 33.94745 -118.40318 115 ft 5 kts 238°
2026-05-04 04:09 33.94734 -118.40338 115 ft 0 kts 238°